George, South Africa

1:47 AM SAST on February 06, 2016 (GMT +0200)
George

Weather History for 68828 - October, 2012

Change the Weather History Date:

Thursday, October 25, 2012

  Actual Average Record
Temperature  
Mean Temperature 66 °F -  
Max Temperature 83 °F 69 °F - ()
Min Temperature 50 °F 52 °F - ()
Cooling Degree Days 2    
Growing Degree Days 16 (Base 50)    
Moisture  
Dew Point 54 °F    
Average Humidity 72    
Maximum Humidity 94    
Minimum Humidity 34    
Precipitation  
Precipitation 0.00 in - - ()
Sea Level Pressure  
Sea Level Pressure 29.83 in    
Wind  
Wind Speed 6 mph ()    
Max Wind Speed 16 mph    
Max Gust Speed -    
Visibility 8.5 miles    
Events      
T = Trace of Precipitation, MM = Missing Value Source: Averaged Metar Reports

Daily Weather History Graph

Daily Weather History Graph

Search for Another Location

Airport or City:

Trip Planner

Search our weather history database for the weather conditions in past years. The results will help you decide how hot, cold, wet, or windy it might be!

Date:

Astronomy

Oct. 25, 2012 Rise Set
Actual Time 5:36 AM SAST 6:52 PM SAST
Civil Twilight 5:10 AM SAST 7:18 PM SAST
Nautical Twilight 4:39 AM SAST 7:50 PM SAST
Astronomical Twilight 4:07 AM SAST 8:22 PM SAST
Moon 3:02 PM SAST (10/25) 2:54 AM SAST (10/25)
Length of Visible Light 14h 08m
Length of Day
13h 15m
Waxing Gibbous, 82% of the Moon is Illuminated
Oct 25
Waxing Gibbous
Oct 29
Full
Nov 7
Last Quarter
Nov 14
New
Nov 20
First Quarter

Hourly Weather History & Observations

Time (SAST) Temp. Heat Index Dew Point Humidity Pressure Visibility Wind Dir Wind Speed Gust Speed Precip Events Conditions
12:00 AM 53.6 °F - 51.8 °F 94% 29.92 in - NW 3.5 mph - N/A   Clear
1:00 AM 53.6 °F - 51.8 °F 94% 29.89 in - NNW 3.5 mph - N/A   Clear
2:00 AM 52 °F - 49 °F 88% 29.87 in 6 mi 3.5 mph - -  
2:00 AM 51.8 °F - 50.0 °F 94% 29.86 in - NNE 3.5 mph - N/A   Clear
3:00 AM 55.4 °F - 53.6 °F 94% 29.80 in - Variable 2.3 mph - N/A   Clear
4:00 AM 50.0 °F - 48.2 °F 94% 29.80 in - West 3.5 mph - N/A   Clear
5:00 AM 54 °F - 51 °F 84% 29.78 in 12 mi 2.3 mph - -  
5:00 AM 53.6 °F - 50.0 °F 88% 29.77 in - Variable 2.3 mph - N/A   Clear
6:00 AM 57.2 °F - 51.8 °F 82% 29.77 in - SSW 4.6 mph - N/A   Clear
7:00 AM 60.8 °F - 53.6 °F 77% 29.77 in - SSW 5.8 mph - N/A   Clear
8:00 AM 67 °F - 55 °F 56% 29.80 in 12 mi South 8.1 mph - -   Scattered Clouds
8:00 AM 66.2 °F - 55.4 °F 68% 29.80 in - South 8.1 mph - N/A   Clear
9:00 AM 69.8 °F - 53.6 °F 56% 29.80 in - West 4.6 mph - N/A   Clear
10:00 AM 77.0 °F - 57.2 °F 50% 29.80 in - SW 5.8 mph - N/A   Clear
11:00 AM 81 °F - 58 °F 34% 29.81 in 12 mi SSW 8.1 mph - -   Clear
11:00 AM 80.6 °F 80.8 °F 57.2 °F 45% 29.80 in - SSW 8.1 mph - N/A   Clear
12:00 PM 77.0 °F - 57.2 °F 50% 29.80 in - South 8.1 mph - N/A   Clear
1:00 PM 80.6 °F 80.8 °F 57.2 °F 45% 29.77 in - SSW 15.0 mph - N/A   Clear
2:00 PM 75.2 °F - 53.6 °F 47% 29.77 in - South 10.4 mph - N/A   Clear
3:00 PM 73.4 °F - 53.6 °F 50% 29.77 in - SSW 8.1 mph - N/A   Clear
4:00 PM 69.8 °F - 57.2 °F 64% 29.80 in - SSW 16.1 mph - N/A   Clear
5:00 PM 66.2 °F - 57.2 °F 73% 29.80 in - SSW 13.8 mph - N/A   Clear
6:00 PM 64.4 °F - 57.2 °F 77% 29.83 in - SW 9.2 mph - N/A   Clear
7:00 PM 62.6 °F - 57.2 °F 82% 29.86 in 6.2 mi SW 12.7 mph - N/A   Partly Cloudy
8:00 PM 61 °F - 56 °F 78% 29.91 in 12 mi WSW 13.8 mph - -   Scattered Clouds
8:00 PM 60.8 °F - 55.4 °F 82% 29.92 in 6.2 mi WSW 13.8 mph - N/A   Partly Cloudy
9:00 PM 62.6 °F - 55.4 °F 77% 29.95 in 6.2 mi WSW 9.2 mph - N/A   Overcast
10:00 PM 60.8 °F - 55.4 °F 82% 29.98 in 6.2 mi WSW 5.8 mph - N/A   Overcast
11:00 PM 60.8 °F - 55.4 °F 82% 29.98 in 6.2 mi WSW 10.4 mph - N/A   Overcast